Theta_e
325 321 319 322 318 318 316 307 300 297 298 294 291 294 295 296 295 297 298 295 298 297 296 297 297 300 301 299 302 300 299 301 300 298 300 310 316 318 324 329 326 330 333 335 338 344 347 345 349 351 350 350 350 350 350 349 349 349 349 349 349 349 349 349 349 348 348 348 348 348 347 347 347 346 346 345 345 345 345 345 346 347 347 347 346 347 346 345 343 342 341 340 339 337 337 336 335
322 319 319 318 319 316 311 301 293 291 290 287 291 290 294 295 295 296 298 298 298 302 294 298 299 300 299 301 298 301 301 303 303 306 308 308 312 317 323 328 326 330 334 336 340 343 345 347 346 350 350 350 349 349 349 349 349 349 348 348 348 348 349 349 348 348 348 348 347 347 347 346 345 344 344 343 342 342 343 344 345 346 346 345 345 344 344 342 341 340 340 339 337 335 334 333 333
318 319 321 318 317 312 307 301 297 285 290 286 288 291 294 294 295 295 297 298 295 295 293 298 300 300 303 302 301 302 302 301 301 304 308 310 319 322 323 328 326 331 334 336 340 342 343 344 344 349 350 350 349 349 349 349 348 348 348 348 348 348 348 348 347 348 348 347 347 346 346 345 344 343 342 341 340 340 340 342 342 343 343 342 342 342 341 340 339 338 337 337 335 332 332 331 331
317 318 317 314 314 304 302 296 290 290 291 287 287 291 291 295 295 297 295 296 295 292 297 301 301 303 303 299 301 301 301 303 304 308 307 313 319 322 325 327 327 330 334 336 340 341 342 342 343 348 350 349 348 348 348 348 348 348 348 348 348 347 347 347 347 347 347 347 346 345 344 343 342 341 340 340 338 337 340 341 340 339 340 340 339 339 338 338 337 337 335 334 332 330 330 330 330
319 318 314 311 308 304 296 294 291 289 290 288 288 290 292 293 297 294 295 293 293 294 296 299 299 301 302 302 299 303 303 303 305 307 309 312 313 320 326 326 327 330 333 335 338 339 340 339 343 347 349 348 348 348 348 348 348 347 347 347 347 347 346 346 346 346 346 345 344 343 342 341 340 340 339 338 336 336 335 337 338 338 338 337 336 336 336 336 335 334 333 331 330 329 329 328 327
313 315 311 317 309 307 298 294 293 290 294 290 291 293 292 295 296 295 297 297 295 295 297 297 300 301 300 300 300 303 303 307 308 306 310 315 314 323 326 326 328 330 333 332 333 335 338 338 342 347 348 348 348 348 347 347 347 347 347 347 347 346 346 346 346 345 345 344 342 342 340 339 338 338 337 336 334 334 335 336 335 336 335 335 334 334 334 333 333 332 331 329 328 328 327 326 326
317 308 307 307 302 301 295 290 289 290 295 292 294 295 299 296 295 295 296 298 297 295 295 300 295 299 299 299 300 303 303 308 310 313 312 312 314 325 324 327 328 330 330 330 330 332 333 337 343 347 347 347 347 347 346 346 346 346 346 346 346 346 345 344 344 344 343 342 341 340 339 338 336 335 335 333 332 333 333 334 334 333 333 333 333 333 333 332 331 330 329 328 328 327 325 325 324
314 313 305 300 294 296 295 290 291 289 294 294 295 295 299 299 296 296 297 297 298 300 297 293 294 298 299 297 300 301 300 303 310 307 308 310 318 324 325 327 327 329 329 327 328 329 329 335 341 345 345 346 346 346 345 345 344 345 344 344 344 344 344 343 343 342 341 341 341 338 339 337 335 332 333 331 331 331 332 332 332 332 332 332 331 331 331 331 329 328 328 326 326 325 323 323 322
307 306 300 299 297 290 287 292 292 292 293 294 297 297 304 301 299 298 297 295 297 295 296 296 296 298 296 296 299 302 298 301 303 306 310 312 319 324 325 326 327 327 327 326 326 327 330 333 338 342 343 345 345 344 344 343 343 343 343 342 342 343 342 341 341 341 339 341 337 336 335 335 333 331 331 330 330 330 330 331 331 331 330 330 330 330 330 330 329 328 327 327 325 323 322 322 321
307 304 299 294 290 293 285 288 290 292 292 294 295 297 297 295 296 297 298 297 298 295 297 294 294 298 297 297 297 301 302 301 303 308 309 313 319 323 324 326 327 327 326 325 325 326 328 328 334 338 340 343 344 344 343 343 342 342 342 341 341 341 341 340 340 339 338 336 335 335 336 334 332 331 330 330 330 330 330 330 330 329 328 328 329 329 329 328 327 327 326 326 324 323 321 320 320
300 298 297 297 287 289 289 288 286 290 289 291 295 297 297 297 297 295 295 296 295 297 297 294 298 296 296 297 298 302 301 301 306 308 309 313 319 322 323 324 323 325 325 324 324 325 327 331 329 334 336 338 340 341 342 342 342 340 342 342 340 341 339 338 338 336 334 334 334 334 332 332 331 330 330 330 329 329 329 328 328 328 328 328 328 329 329 328 327 326 325 324 323 322 320 320 318
299 296 293 286 289 289 287 287 289 292 293 293 295 294 294 296 295 298 295 297 296 295 296 297 302 296 297 294 300 301 299 300 306 307 308 313 319 322 322 321 321 322 323 322 322 324 326 329 332 330 331 334 335 338 339 339 339 339 339 339 339 338 338 335 335 335 334 333 332 332 332 331 330 330 330 329 329 328 328 328 328 328 327 327 328 327 326 326 326 325 323 322 321 320 320 318 316
298 292 291 290 290 288 287 288 291 293 292 292 295 297 294 295 297 297 295 294 293 296 298 298 298 300 298 297 299 297 301 303 302 306 309 314 319 319 319 319 319 320 320 321 322 323 323 326 330 331 331 328 330 332 333 335 336 337 338 338 338 337 337 336 334 334 332 332 332 331 331 330 329 329 329 329 328 328 328 328 327 327 327 327 326 325 325 325 324 323 322 321 320 319 318 317 315
297 294 293 293 287 286 289 290 288 292 290 293 292 292 293 296 296 295 294 297 295 297 299 298 299 298 298 296 300 297 297 300 303 307 310 313 315 316 317 317 317 318 319 319 322 323 323 324 326 328 330 332 333 330 328 330 333 335 336 336 335 335 335 335 334 333 332 332 332 331 330 329 329 328 328 328 328 327 327 327 326 327 326 325 325 324 323 323 322 321 321 320 319 318 317 316 314
302 293 291 288 288 287 287 292 290 287 292 293 294 294 294 297 295 292 298 298 298 297 300 297 300 300 297 298 298 299 300 300 305 307 309 311 314 315 315 315 315 316 317 317 320 321 322 323 324 325 326 328 329 331 331 332 328 331 333 333 333 333 333 332 331 331 330 330 330 328 327 325 325 326 326 327 327 327 326 325 326 326 325 324 323 322 322 321 321 320 320 319 318 317 316 314 313
298 295 293 294 289 288 288 289 288 289 292 291 292 290 293 294 292 298 296 299 300 298 296 300 300 300 298 299 302 300 297 302 304 306 309 311 311 312 313 314 314 315 316 317 318 320 322 322 323 324 325 326 327 328 329 330 327 326 329 330 330 331 330 330 329 329 325 324 324 324 322 323 322 323 320 324 323 325 324 322 324 324 324 323 322 321 320 320 319 319 318 317 317 316 314 313 311
297 295 293 285 290 287 288 290 288 290 290 290 291 293 296 295 294 293 293 294 298 296 296 296 301 301 297 299 299 296 297 303 305 307 309 310 312 312 313 313 313 314 314 315 317 318 319 321 321 322 322 323 325 326 326 327 329 325 326 325 325 326 327 326 327 324 320 319 319 318 316 320 321 322 322 323 317 323 316 318 322 323 323 321 320 319 318 318 317 316 315 313 312 311 309 308 307
301 295 288 288 287 287 289 291 290 292 294 294 293 291 295 294 294 296 296 296 294 294 294 296 296 295 298 295 297 298 300 303 304 307 307 308 310 310 312 313 312 314 314 314 315 317 318 319 321 321 321 321 323 323 323 324 327 327 328 329 329 327 324 322 325 325 317 322 317 317 316 314 314 315 316 315 318 319 319 316 319 321 321 320 319 318 317 316 315 314 312 310 307 304 299 297 299
294 289 289 290 286 292 293 291 292 292 294 293 292 290 293 295 295 297 296 294 292 295 297 296 297 298 299 296 297 299 301 301 303 306 305 306 307 310 311 312 312 314 315 314 315 315 316 318 320 321 321 320 320 322 322 322 324 326 325 326 325 323 323 322 321 317 317 316 315 314 312 311 311 312 312 313 314 313 318 316 317 319 319 318 317 317 316 315 314 313 311 308 304 300 296 296 295
295 293 290 288 291 291 291 291 293 293 295 296 295 294 292 293 294 295 296 295 291 294 297 297 295 299 300 298 298 298 299 301 303 305 305 306 307 310 310 311 311 313 315 316 316 315 316 317 318 319 320 318 319 321 321 321 322 323 322 322 323 323 322 318 316 314 312 311 310 310 309 308 308 309 310 309 311 315 316 314 315 315 316 316 315 315 313 313 311 308 306 302 298 296 296 295 295
296 295 291 293 291 292 295 292 294 293 293 293 293 291 292 294 292 294 292 295 296 297 299 299 300 300 300 298 297 297 298 299 301 303 304 305 306 308 310 311 312 313 315 316 315 315 315 316 317 317 318 318 319 318 320 321 319 319 319 319 320 319 317 315 313 311 309 307 307 307 306 306 306 308 310 310 309 309 310 311 310 309 308 306 303 302 300 299 297 297 296 296 296 296 296 294 295
296 296 296 294 290 293 295 293 292 293 290 291 290 292 297 292 291 292 294 295 297 300 301 299 300 301 300 299 297 297 297 299 299 301 303 304 305 305 307 309 310 311 311 313 314 315 315 315 316 317 317 316 318 319 320 319 316 320 318 317 317 315 314 312 310 309 306 304 304 304 304 304 305 306 306 305 304 305 305 304 303 302 302 300 298 296 295 295 295 295 295 295 294 294 294 294 294
295 294 295 296 293 295 294 293 291 292 291 290 292 295 293 294 296 290 294 296 301 304 302 302 300 300 300 297 297 296 297 298 299 300 302 303 304 305 306 307 308 308 309 312 314 314 315 314 315 316 315 315 316 317 317 317 318 320 318 314 316 312 311 309 307 306 305 302 302 303 303 303 303 303 302 302 301 301 302 300 299 299 298 296 295 295 295 294 294 294 294 294 293 293 293 292 292
296 294 290 295 295 296 295 298 289 289 290 295 293 293 295 296 295 292 294 297 301 303 303 302 301 297 295 296 297 298 298 298 299 300 302 303 304 305 306 306 307 309 309 310 311 312 312 313 314 314 314 314 314 315 316 316 316 316 314 311 313 311 308 308 307 305 303 300 300 301 303 303 302 301 301 300 299 297 298 297 296 296 295 295 294 294 294 293 293 293 294 293 293 293 292 292 292
295 294 292 294 293 294 295 294 293 293 293 295 293 294 297 298 296 292 294 297 299 301 302 299 298 296 294 294 297 296 297 298 298 300 301 302 304 305 305 306 306 307 307 307 309 310 311 312 313 313 314 313 314 314 314 315 315 314 313 312 312 309 308 307 305 303 301 299 299 300 301 301 300 300 299 298 296 296 295 295 294 294 294 294 294 293 294 293 293 293 293 293 293 292 292 291 291
294 297 293 291 292 292 293 292 291 291 293 293 294 295 297 296 293 293 297 298 300 301 300 298 296 295 295 296 297 297 296 297 298 299 299 301 302 301 303 304 304 303 306 307 307 309 310 311 311 312 313 313 313 312 313 314 313 312 312 313 312 309 308 306 303 301 301 299 298 299 300 301 299 299 298 296 294 294 293 294 293 293 293 293 293 293 293 293 292 292 292 292 292 292 292 291 291
291 292 292 293 294 292 292 293 293 291 290 289 294 294 295 293 293 293 295 297 298 297 296 294 293 294 296 295 296 296 295 296 297 299 300 299 299 300 302 303 303 304 305 305 306 307 308 309 310 311 312 312 313 311 312 313 312 311 311 312 310 308 307 305 302 300 299 298 298 298 299 299 299 298 297 295 294 293 292 293 293 292 292 293 293 293 292 293 292 292 292 291 291 291 291 291 290
290 292 290 291 290 290 289 288 290 290 294 290 294 294 294 291 291 294 298 293 293 294 295 295 293 294 295 295 294 295 294 296 297 297 298 298 299 300 300 302 302 303 303 303 305 307 306 307 309 310 311 312 312 310 311 311 311 310 311 311 309 308 306 303 301 299 298 297 298 298 298 298 297 297 296 294 294 292 292 292 292 292 293 292 292 292 292 292 292 291 290 290 291 291 290 289 290
289 290 291 289 289 292 294 291 293 290 291 288 291 290 289 290 289 297 298 296 295 294 295 295 295 295 295 295 294 294 295 296 295 296 298 300 301 301 301 302 303 303 304 304 304 304 304 305 307 309 310 311 310 310 310 311 311 310 310 309 308 307 304 303 301 299 298 297 297 297 297 297 297 296 295 294 294 292 292 292 291 292 292 292 292 292 292 291 291 290 290 290 290 289 289 289 289
291 288 287 290 289 289 293 291 286 289 290 287 290 287 285 290 295 297 297 295 292 291 294 295 296 295 294 294 294 294 294 294 294 296 298 299 300 301 301 302 303 303 303 303 302 302 304 304 305 307 309 309 309 310 310 310 310 309 309 308 307 305 303 302 301 300 298 296 296 297 297 296 296 295 294 294 293 292 291 292 292 292 292 292 292 292 291 291 290 290 289 289 289 289 289 289 289
291 287 287 286 286 287 290 289 288 289 289 288 290 287 287 291 294 296 296 293 292 293 294 294 294 294 294 294 294 295 296 296 296 297 298 299 300 300 301 302 302 302 303 302 301 302 302 303 303 304 306 308 309 309 309 309 309 308 307 306 305 304 303 302 301 300 298 296 296 296 296 296 296 294 294 293 292 291 291 291 291 291 291 292 291 291 291 290 290 290 290 290 290 289 290 289 289
283 287 284 281 285 285 289 290 288 290 288 287 290 286 289 292 294 296 292 289 290 291 292 294 294 295 294 294 295 295 297 300 298 297 298 297 298 299 300 301 301 301 301 302 302 302 300 301 302 303 305 306 308 308 308 308 308 307 307 305 304 303 302 301 300 299 298 297 296 296 296 296 295 294 294 294 292 291 291 290 291 291 291 291 291 290 290 290 289 289 289 290 289 289 289 288 288
280 286 284 286 283 284 286 292 287 290 289 288 291 289 286 288 291 293 291 291 290 291 293 294 295 295 295 295 296 296 297 298 299 299 298 297 298 298 299 300 301 301 301 302 301 300 300 300 300 301 302 304 306 307 307 307 307 306 305 304 303 302 301 300 299 298 297 296 296 295 295 295 295 294 294 293 292 291 290 290 290 290 291 291 290 290 290 290 289 289 288 288 290 290 289 288 288
285 283 283 283 285 285 284 287 293 286 290 287 288 286 289 292 292 293 294 294 291 291 293 294 295 296 296 297 296 296 297 297 298 300 300 298 298 297 298 300 300 301 301 301 301 301 300 300 300 300 301 302 304 305 306 306 305 305 303 302 301 299 300 300 298 297 296 296 296 295 295 295 295 294 294 293 293 292 291 290 290 290 290 290 290 289 289 289 288 289 288 288 287 289 288 288 288
284 283 282 284 281 283 286 285 287 286 288 286 284 286 287 290 292 292 294 295 293 293 294 295 295 295 296 296 296 296 297 297 298 300 301 301 298 297 297 298 299 300 300 300 300 301 301 300 299 299 300 300 302 303 304 304 303 302 300 299 298 298 298 298 297 296 296 295 295 296 295 295 295 294 293 293 292 291 290 289 289 290 290 290 289 289 289 288 288 287 289 288 287 288 289 288 288
286 285 285 282 283 283 282 287 289 288 288 286 285 287 289 290 291 292 293 294 293 294 295 295 295 295 296 295 296 296 297 297 299 300 301 300 299 298 297 297 297 299 299 299 300 300 300 299 299 299 299 299 300 301 302 301 300 298 296 295 295 295 296 296 296 295 295 295 295 296 295 295 295 293 293 293 293 291 290 289 289 289 289 289 289 288 288 288 287 287 288 288 288 287 287 287 287
285 285 284 284 284 285 286 288 289 286 286 287 289 290 290 290 290 292 293 294 293 293 293 295 296 296 296 296 297 297 297 297 301 300 299 299 299 297 297 296 296 296 297 298 298 299 299 299 298 297 298 299 298 298 299 299 297 297 296 294 294 295 295 295 295 295 295 295 295 295 295 295 295 294 293 292 292 292 290 289 288 289 289 289 289 289 289 288 288 288 288 288 288 287 286 286 287
285 285 283 285 284 285 289 289 290 285 286 283 285 288 289 290 291 292 294 293 292 293 294 294 295 296 297 297 297 298 298 300 298 298 298 296 296 296 296 295 295 295 296 296 297 298 299 299 298 298 298 298 298 298 298 299 299 298 296 295 296 296 295 294 294 294 294 295 295 295 295 295 295 294 293 292 292 291 290 288 288 288 288 289 289 289 289 288 287 287 287 287 287 288 287 286 286
285 285 285 282 284 285 288 289 290 287 284 286 285 285 287 289 291 293 293 293 294 295 294 295 295 296 296 297 297 297 297 297 296 297 297 295 295 295 294 295 295 295 297 296 297 298 298 298 298 298 298 297 297 298 298 298 299 299 298 298 297 296 297 296 296 295 295 294 294 294 294 294 294 294 293 292 292 291 290 289 288 288 288 289 288 287 288 287 287 286 287 288 286 287 287 286 286
283 283 282 283 285 283 284 285 282 284 285 286 287 285 287 290 292 292 294 293 294 295 295 295 296 295 296 297 296 296 296 296 296 296 295 295 295 294 293 293 295 295 294 295 295 296 297 298 298 298 297 297 297 297 298 299 299 299 298 296 296 296 294 294 295 294 294 293 293 294 294 294 294 293 293 292 292 291 290 289 288 288 288 289 289 287 287 286 286 286 286 288 288 286 286 285 287
285 285 284 284 284 286 285 285 283 284 285 283 284 286 289 289 288 288 289 290 291 293 293 294 295 296 297 297 296 299 296 295 295 295 295 295 295 296 296 295 293 294 295 295 296 296 296 297 298 298 298 297 297 297 297 298 297 296 295 293 294 293 293 293 293 291 292 292 292 292 292 293 293 293 292 292 292 291 291 290 289 288 288 288 288 288 287 287 286 287 287 287 288 289 285 286 285
285 283 286 287 288 286 285 285 284 281 283 281 283 284 285 285 286 286 287 286 288 289 292 293 294 295 295 294 295 294 294 294 296 295 296 296 295 295 294 294 293 294 294 295 296 296 297 297 297 297 297 297 297 297 297 297 296 296 293 293 291 291 291 290 290 291 290 291 291 292 292 293 293 293 292 292 292 291 290 290 289 288 288 287 288 288 288 287 286 286 286 287 287 289 288 285 285
283 284 285 287 286 285 284 283 284 278 278 283 282 280 281 283 287 287 286 287 290 290 290 294 295 293 292 293 294 293 293 294 293 293 293 294 295 294 295 295 295 294 295 295 295 295 296 296 297 297 297 297 297 296 297 296 296 295 294 294 294 293 293 293 294 294 293 292 293 292 292 292 293 292 292 292 292 292 291 290 289 289 288 288 288 287 287 287 286 287 287 286 287 288 288 286 286
282 282 282 284 283 283 284 283 283 282 281 283 283 284 280 283 285 288 288 288 289 291 292 293 293 292 292 293 294 292 294 292 294 294 293 293 292 292 294 295 294 295 294 293 294 294 295 295 295 296 296 296 296 296 296 296 295 295 294 294 294 294 294 295 294 294 294 293 292 292 292 291 292 292 292 291 292 291 291 290 289 289 288 288 287 287 287 287 287 287 287 287 287 287 288 288 287
282 283 283 283 283 283 282 283 281 280 280 279 281 284 280 280 286 282 286 287 289 289 291 293 294 292 292 293 293 292 293 294 293 296 295 294 294 294 293 294 294 293 293 293 294 294 294 295 295 295 295 295 295 295 295 295 296 295 295 295 294 295 295 295 294 294 293 293 292 292 291 291 291 291 292 291 291 291 290 290 289 288 288 287 287 287 287 287 287 286 286 285 285 285 286 289 287
284 283 282 281 281 281 282 280 282 278 277 278 280 283 280 283 288 284 282 286 286 288 292 293 292 292 292 294 294 292 292 293 292 292 293 293 293 293 292 291 293 293 292 291 292 292 293 293 294 293 294 295 295 294 295 295 295 295 294 294 294 294 295 293 292 292 292 292 291 291 291 290 290 290 290 291 290 291 290 290 289 288 288 287 287 287 287 287 286 286 286 286 286 285 285 286 287
283 284 285 282 280 279 278 277 278 276 274 280 282 283 284 281 286 285 285 287 288 290 289 290 290 290 292 291 291 292 292 293 293 292 292 292 291 290 290 293 293 293 291 290 292 292 292 292 293 293 293 294 294 294 294 294 295 295 294 294 294 294 294 292 291 291 291 290 290 291 290 290 290 289 290 290 290 290 290 290 289 289 288 287 287 287 286 286 286 286 286 286 286 285 285 285 287
286 283 281 281 283 277 276 269 275 275 276 281 282 283 284 280 283 284 284 283 282 286 288 289 290 291 292 290 290 291 290 291 291 291 293 292 293 294 292 294 294 293 292 292 291 290 291 291 291 292 292 292 293 293 293 294 294 294 294 294 294 294 294 292 291 291 290 290 290 290 290 290 289 289 289 289 289 289 289 289 289 289 288 287 287 287 287 286 286 286 285 285 285 285 286 285 286
285 283 285 279 274 272 270 272 271 272 279 279 280 282 279 281 286 286 287 288 287 285 289 289 290 290 292 289 289 290 290 290 290 291 291 292 293 293 293 293 294 294 293 292 291 290 290 291 290 291 291 291 292 292 293 293 293 293 294 294 294 294 294 293 292 292 291 291 290 290 289 289 289 288 288 288 289 289 289 288 288 287 287 287 287 287 287 286 286 285 285 285 285 285 284 284 284
284 284 281 278 273 271 268 268 267 270 276 277 279 281 280 283 283 290 292 295 293 290 288 288 289 291 291 290 290 289 290 291 291 290 290 291 293 293 292 293 293 294 293 292 291 290 290 290 290 290 291 291 291 291 292 292 293 293 294 294 294 293 293 293 293 292 292 291 291 291 290 289 289 288 289 288 289 289 289 289 288 288 288 288 287 287 286 286 286 285 285 284 284 285 285 284 285
285 285 286 283 280 275 275 274 278 280 280 277 277 277 276 275 284 284 290 288 283 283 286 286 287 287 288 287 288 289 290 292 290 291 291 291 291 292 292 292 292 292 292 293 292 291 290 290 290 290 290 290 290 290 291 291 292 293 293 293 293 293 293 293 293 293 292 291 291 291 290 290 290 290 290 290 290 289 288 289 288 288 287 287 287 286 286 286 285 285 285 285 285 285 284 284 284
285 283 284 280 282 283 281 284 280 283 277 274 273 278 278 284 285 287 284 284 289 287 288 287 288 286 286 288 289 290 291 291 291 290 291 290 290 290 290 290 290 291 291 291 291 291 290 290 290 290 290 290 290 290 290 291 291 292 292 292 293 293 292 293 293 293 292 292 291 291 290 290 291 291 290 290 290 289 288 288 288 287 287 287 286 286 286 285 285 284 284 284 284 284 284 284 284
283 284 282 285 286 286 282 282 284 280 278 279 282 280 285 287 290 291 291 288 287 284 287 285 287 286 286 288 289 289 289 289 288 288 288 288 288 288 288 288 289 289 290 290 290 291 291 290 290 290 290 289 289 289 290 290 290 290 291 291 292 292 292 292 292 292 292 291 291 291 290 290 290 290 290 290 289 289 288 288 287 287 287 287 286 286 285 285 284 284 283 283 283 284 284 283 283
284 280 284 286 286 286 283 278 277 278 277 280 286 283 284 284 282 285 286 286 287 286 285 284 285 286 286 287 288 287 286 286 287 287 287 287 287 287 287 288 288 288 289 289 290 291 291 291 290 290 290 289 290 290 289 289 289 289 290 290 291 291 291 292 292 291 291 290 290 290 290 289 289 289 289 289 289 288 288 287 287 287 287 286 286 286 285 285 284 284 284 283 284 284 283 283 283
286 284 288 285 281 280 281 277 275 276 276 278 281 284 284 285 286 288 288 289 288 289 286 286 287 286 285 285 285 285 285 285 285 285 285 286 286 286 286 287 287 288 288 289 290 290 290 290 290 290 290 290 289 289 289 289 289 290 290 290 290 291 291 291 291 291 290 290 289 289 289 289 289 289 288 288 288 287 287 287 287 287 286 286 286 285 285 284 284 283 283 283 283 283 282 282 282
286 288 285 286 285 283 280 282 279 281 277 279 279 284 281 289 289 288 288 288 290 289 286 286 285 284 283 283 284 284 284 284 284 284 285 285 285 285 285 286 286 286 287 289 289 289 289 289 290 290 290 290 290 290 289 289 290 289 290 290 290 290 290 290 291 290 290 289 289 288 288 287 288 288 288 288 288 287 287 287 287 286 286 286 285 285 284 284 283 283 283 282 282 282 281 281 281
283 284 283 285 283 285 284 283 281 281 279 279 278 278 284 290 292 290 289 288 287 286 285 284 283 283 283 283 283 283 283 283 284 284 284 284 285 285 285 285 286 286 287 287 287 287 288 288 288 289 289 289 289 290 289 289 289 289 289 289 289 289 289 290 290 290 289 289 288 288 288 288 288 287 287 287 287 287 287 287 286 286 286 285 285 284 284 284 283 282 283 282 282 281 281 281 281
284 285 284 286 283 281 280 278 286 282 281 277 279 277 285 292 296 294 286 284 284 284 284 283 282 282 282 282 283 283 283 283 283 284 284 284 284 284 285 285 285 285 285 285 286 286 286 287 287 288 288 288 288 289 289 288 288 288 288 288 288 288 288 288 288 288 288 289 289 288 288 287 287 287 287 287 287 287 287 286 286 286 286 285 285 284 284 283 282 282 282 282 281 281 281 281 281
Wind_Speed
4 4 3 2 4 2 1 6 0 3 2 3 4 0 3 2 2 6 5 5 2 1 3 1 5 4 2 3 7 3 3 6 7 4 1 2 1 4 10 7 3 4 10 8 8 9 10 10 11 11 14 14 14 14 13 13 12 11 11 11 11 11 11 11 11 11 10 10 10 11 11 11 10 10 9 9 8 7 8 8 8 9 9 10 11 11 12 12 13 13 13 13 13 13 12 11 10
3 4 3 1 1 1 1 1 5 4 4 3 5 2 4 3 2 6 4 5 3 0 1 3 5 3 1 1 3 1 6 11 7 2 4 3 6 4 11 10 3 9 9 9 10 9 10 10 11 11 14 14 14 13 12 12 11 11 11 10 10 10 10 11 11 11 11 11 11 11 11 10 9 9 9 7 6 6 7 8 8 9 9 9 9 9 10 11 13 12 12 13 14 12 11 11 10
4 5 2 3 3 4 3 4 3 2 1 4 7 7 2 2 5 6 8 7 6 3 3 1 1 3 3 1 3 3 6 1 3 3 4 3 1 5 12 11 5 6 8 7 9 9 7 7 11 12 14 14 15 14 13 12 12 11 10 10 10 10 10 11 11 12 12 11 11 11 10 10 8 7 7 7 6 5 4 6 6 7 8 8 7 7 6 9 12 12 12 13 13 12 11 11 10
2 5 2 3 2 3 1 4 4 5 2 5 5 5 5 4 7 6 5 8 7 3 1 2 4 1 3 5 5 3 7 5 6 6 2 4 6 0 12 12 4 4 7 7 8 9 9 8 11 12 14 15 15 14 13 13 12 12 11 11 11 11 11 11 11 12 12 11 11 9 9 7 7 6 7 6 5 4 6 8 5 3 5 6 6 6 6 10 11 10 11 12 12 12 11 11 11
1 3 2 3 3 1 2 1 2 3 4 5 3 4 6 7 7 4 6 4 6 4 1 0 1 1 2 2 1 1 4 4 4 3 2 4 2 4 12 10 6 7 8 8 8 8 7 10 12 13 15 16 15 15 13 13 12 12 10 11 11 11 10 12 12 12 12 11 9 8 7 6 6 6 5 5 5 5 1 4 6 5 4 5 5 5 7 10 11 11 11 11 12 12 11 11 11
4 1 4 1 0 2 5 1 0 4 6 6 1 5 5 5 4 4 8 9 5 6 3 1 1 1 1 5 5 3 4 3 2 3 4 2 3 7 13 8 9 8 9 7 5 4 4 8 11 13 17 17 16 15 14 13 13 12 12 12 11 11 10 10 11 10 10 8 8 8 7 6 6 5 6 5 5 5 4 5 5 7 5 6 6 6 9 10 10 10 11 11 12 12 12 12 11
1 3 5 4 2 4 3 2 5 5 8 9 5 7 8 1 6 3 7 6 1 2 2 1 2 1 2 4 3 7 3 1 3 1 6 3 1 9 10 8 9 11 9 7 4 4 5 7 10 12 14 15 16 15 14 13 13 12 11 12 12 11 10 10 7 8 9 8 7 8 7 7 7 6 6 6 6 6 6 7 7 7 8 8 8 8 10 10 11 11 11 11 12 12 12 11 11
2 2 2 1 1 2 0 1 5 5 4 7 3 6 9 5 2 2 6 2 3 1 1 2 2 2 7 2 2 1 3 5 1 1 3 2 4 10 10 10 10 11 9 5 5 4 5 7 9 10 11 12 12 13 14 13 13 12 11 11 11 10 9 10 9 8 7 8 11 8 9 8 8 9 7 7 7 7 8 8 8 8 9 10 9 9 10 11 11 11 11 11 12 12 11 11 11
5 6 1 3 1 3 2 4 5 4 8 4 10 8 11 9 7 3 8 3 4 2 2 4 7 1 3 4 6 3 5 2 3 4 3 3 6 11 7 11 9 9 9 5 4 5 5 6 8 8 7 10 10 12 13 14 13 13 12 12 12 12 12 10 10 9 8 13 8 9 7 8 8 6 8 8 8 7 9 9 9 9 10 10 10 10 11 11 11 12 12 12 12 12 12 12 12
2 2 1 2 3 3 4 5 0 4 6 4 6 10 7 4 3 7 5 6 7 1 3 1 2 5 1 5 7 5 2 3 3 2 3 5 6 9 9 11 11 11 9 6 5 5 5 5 7 8 7 8 8 13 15 14 14 13 13 12 12 12 11 11 11 10 11 8 7 9 11 9 8 9 9 9 9 10 10 10 10 10 10 11 11 11 11 11 11 11 12 12 12 12 12 12 12
1 5 3 2 2 1 3 6 5 7 6 5 10 13 12 5 4 3 5 4 1 3 1 3 2 7 1 5 6 1 3 3 2 5 5 5 6 11 9 8 6 7 9 7 5 4 5 5 7 8 6 7 8 7 11 10 12 13 12 13 14 11 11 12 9 9 10 10 10 10 8 11 11 11 11 11 11 11 11 10 10 11 11 11 12 12 12 12 12 12 12 12 12 12 12 12 12
1 1 1 3 2 4 4 3 6 9 9 5 6 2 0 4 4 1 2 1 1 4 5 7 1 6 2 2 4 2 5 5 6 3 3 4 6 9 7 5 6 6 6 6 4 5 5 5 6 7 7 7 7 7 8 9 10 11 9 8 9 9 9 9 10 10 11 11 12 12 11 11 11 11 11 12 11 11 11 12 12 12 12 12 12 12 12 12 12 12 12 12 12 12 12 12 12
3 2 5 4 2 2 2 2 7 4 8 5 3 0 1 7 2 3 4 2 1 3 4 14 2 0 3 3 4 7 4 2 3 1 4 5 7 6 5 5 5 6 6 4 6 6 5 5 5 6 5 7 7 8 9 9 9 10 9 10 10 9 9 11 10 11 12 12 12 12 11 11 12 12 13 12 12 12 12 12 12 12 13 13 13 12 13 13 12 12 12 12 12 12 12 12 12
5 6 5 1 3 2 2 4 1 3 6 4 5 2 2 1 4 5 5 1 4 3 2 2 1 3 4 3 6 5 3 3 2 1 3 4 4 4 6 4 5 6 6 6 7 7 6 5 5 5 6 6 6 7 8 8 9 9 9 10 11 10 10 10 11 11 10 11 11 9 10 10 10 12 13 13 13 12 12 12 12 13 13 13 13 13 13 13 13 12 12 12 12 12 12 12 12
2 2 5 4 1 1 3 1 1 3 7 2 2 0 1 5 3 3 4 2 8 4 1 1 4 3 6 5 7 4 2 3 2 4 5 4 5 4 5 3 4 4 5 6 6 7 7 6 6 5 6 5 6 6 6 7 9 9 9 10 10 10 10 10 10 9 9 9 9 9 9 10 10 11 11 11 12 11 10 10 12 13 13 13 13 13 13 12 12 12 12 12 13 13 12 12 12
5 5 3 1 2 2 4 3 0 1 8 3 2 1 1 3 3 1 5 4 3 1 1 5 0 4 1 4 6 2 1 1 3 5 6 6 4 3 3 3 4 4 4 6 7 7 7 7 6 6 6 6 6 5 6 6 7 9 8 8 9 9 10 9 9 9 8 8 9 9 10 9 9 8 10 9 10 11 10 8 11 13 13 13 13 13 13 12 12 12 12 12 13 13 13 13 12
3 4 1 3 4 3 4 3 5 3 6 5 5 0 0 1 1 4 1 0 3 4 1 4 5 0 6 7 1 3 1 4 4 7 7 5 4 4 3 4 4 5 5 8 8 7 7 8 8 7 6 7 7 6 6 6 6 8 7 7 8 9 9 10 9 10 9 9 9 10 9 7 5 5 6 6 9 7 8 9 10 12 13 13 13 13 13 13 12 12 12 12 12 12 12 13 12
1 2 4 1 5 4 7 7 11 2 1 4 3 3 1 6 2 1 1 1 2 5 7 6 4 10 7 3 1 0 4 6 6 9 6 6 5 6 6 8 7 9 8 7 9 9 8 9 11 8 7 8 7 6 5 5 5 7 6 6 6 7 8 9 8 7 7 7 10 8 6 5 4 4 4 6 5 7 7 9 10 11 13 13 13 13 13 13 13 13 13 13 13 12 11 5 6
3 2 2 6 5 7 9 7 8 2 8 4 3 2 2 8 1 2 1 3 2 7 9 2 6 11 9 7 5 4 6 6 8 8 11 12 10 11 10 9 10 8 9 8 8 11 10 8 9 12 10 7 7 7 6 5 6 6 6 6 5 6 7 9 7 8 6 7 7 6 5 4 4 4 4 5 5 6 7 8 9 10 12 12 12 12 12 13 13 13 13 13 12 11 5 4 4
2 5 4 7 8 5 7 4 7 11 2 5 7 4 1 4 1 0 3 6 4 9 12 7 7 13 11 7 5 7 6 7 8 10 12 13 12 12 10 10 10 12 11 10 9 8 9 9 12 10 12 9 7 6 6 5 5 6 5 5 5 5 6 6 7 7 6 7 7 5 5 5 5 4 5 8 6 5 6 8 9 10 10 8 9 8 11 12 13 13 13 11 7 4 4 3 3
1 2 5 6 4 2 6 11 11 8 2 3 3 3 6 4 7 3 2 3 9 13 13 14 17 14 12 7 8 6 8 8 9 10 11 13 12 8 10 11 13 12 10 7 7 12 12 11 10 11 11 9 11 7 8 10 7 5 6 5 5 5 5 5 5 6 6 7 7 5 5 6 5 4 4 4 3 4 4 4 4 4 4 5 5 5 4 4 4 4 5 5 4 4 4 4 3
4 9 5 6 2 3 7 9 6 4 2 4 3 5 9 2 0 4 5 8 11 10 10 9 16 14 11 10 8 6 8 10 11 11 15 15 16 15 10 8 7 5 5 8 12 10 12 12 12 9 10 10 11 9 10 9 7 10 8 6 5 5 5 5 5 5 6 7 6 6 6 6 5 4 4 5 4 4 5 4 3 3 4 4 3 4 3 3 3 3 4 4 4 4 4 4 4
5 3 6 7 7 5 2 3 5 5 1 3 2 5 5 3 6 5 9 12 16 16 14 14 12 10 8 4 3 7 9 12 12 16 16 14 14 13 12 10 8 9 9 11 8 9 10 11 13 11 12 11 12 10 7 7 11 10 7 6 7 6 5 6 6 6 6 7 7 7 7 6 5 5 5 5 5 4 4 4 4 3 4 3 3 4 4 3 3 4 4 4 4 5 5 4 4
2 8 1 7 5 12 6 4 6 4 5 8 4 5 9 8 11 2 9 14 19 20 17 14 11 5 4 5 8 11 12 14 16 18 16 18 17 19 15 13 11 7 7 8 8 9 10 12 13 12 12 12 11 10 9 8 7 8 8 7 7 6 7 7 6 6 6 6 7 7 6 7 7 7 6 6 5 4 5 4 4 4 3 3 3 3 5 3 3 3 4 4 4 4 4 4 4
4 7 4 5 1 7 6 5 6 6 10 8 3 7 19 14 8 2 10 13 16 21 18 9 10 7 6 9 13 11 10 10 13 15 10 11 12 11 8 8 8 8 11 10 9 9 10 10 13 14 12 13 10 10 10 8 8 7 8 8 8 7 7 7 7 7 7 6 6 7 7 8 6 6 7 6 5 5 4 4 4 4 3 3 4 3 3 5 4 3 3 4 3 4 4 4 3
8 13 1 4 4 6 5 4 5 8 6 4 1 14 18 12 4 14 22 17 20 20 14 10 7 9 12 13 15 12 12 13 14 12 15 11 9 10 14 11 9 11 15 10 9 10 8 11 14 15 15 13 11 12 9 9 11 10 10 10 9 8 8 7 8 7 6 7 7 8 8 7 8 8 7 6 6 6 5 4 4 4 4 4 4 4 3 4 5 4 3 4 4 3 4 3 3
4 2 4 6 8 7 5 8 6 5 6 5 7 12 16 3 4 12 6 12 12 10 12 7 6 11 13 10 11 10 11 14 16 12 4 9 10 12 16 11 12 17 11 12 10 9 9 10 12 13 14 14 11 14 11 11 10 11 10 9 8 9 8 7 7 7 7 7 7 8 8 8 7 7 7 7 6 6 6 5 5 4 4 4 3 4 3 3 3 3 4 4 4 4 3 3 3
3 1 5 8 6 8 8 4 12 1 8 10 10 14 10 6 2 16 21 3 4 4 9 10 8 11 12 11 10 9 9 13 10 5 14 12 13 14 13 11 14 15 12 15 11 7 9 14 12 13 14 14 15 13 12 11 12 11 11 9 10 8 9 8 7 8 8 7 8 9 8 8 7 7 8 7 7 7 6 6 5 6 5 4 4 4 5 3 4 4 4 3 3 3 4 3 2
0 1 5 7 7 12 7 5 9 10 7 7 8 2 6 5 10 21 15 1 6 7 12 14 12 11 11 11 9 9 12 12 8 10 16 15 13 11 15 15 15 13 11 13 10 11 14 11 12 14 13 14 16 15 13 12 10 10 11 11 9 10 8 8 8 9 8 8 8 9 8 9 8 8 8 9 8 7 7 7 6 6 5 5 4 5 6 4 4 4 4 3 4 3 4 4 2
0 2 1 10 7 9 10 5 3 7 4 9 7 7 6 12 19 20 6 2 2 4 10 14 12 10 9 9 10 10 10 10 11 15 15 14 13 12 15 13 14 13 10 8 9 13 12 9 10 8 11 13 15 11 11 10 11 10 9 7 8 8 8 9 9 8 8 8 8 9 9 9 8 7 8 8 7 7 7 7 7 6 5 6 5 5 5 4 4 5 5 4 4 4 4 3 3
3 3 2 4 6 10 4 1 3 1 3 11 2 9 7 12 15 17 2 2 4 8 12 12 11 10 9 9 9 10 13 11 15 15 15 13 10 9 13 9 10 12 8 8 14 18 11 11 9 8 13 13 14 12 13 12 10 9 8 8 8 9 8 9 8 7 8 8 8 9 10 9 9 9 9 9 8 8 8 7 7 6 6 6 5 5 5 4 4 5 5 5 4 3 3 3 2
1 3 5 2 7 6 13 4 7 10 1 2 4 9 13 12 15 15 2 3 1 6 10 13 12 11 11 9 10 11 15 15 11 12 14 12 10 11 10 12 10 11 14 14 13 10 13 12 11 13 11 13 13 15 12 11 10 9 8 8 7 9 8 8 7 8 8 8 9 8 10 9 9 10 10 9 9 8 8 8 7 6 7 6 5 5 5 5 5 5 4 4 6 4 4 3 2
3 6 6 9 3 7 9 10 3 8 2 1 11 11 2 9 14 13 5 2 3 6 13 16 17 16 15 13 12 12 14 16 15 14 14 7 8 9 10 10 10 13 13 12 13 12 12 13 15 14 15 16 14 12 10 10 9 9 9 8 8 8 8 7 7 7 8 8 8 8 9 9 10 10 10 9 8 9 8 7 6 7 7 6 6 6 5 4 5 5 4 4 2 4 4 5 3
7 1 7 3 8 3 5 9 9 1 6 4 6 7 12 14 10 11 14 11 9 11 17 19 17 16 17 14 13 13 13 14 18 20 5 4 8 9 10 10 12 12 12 13 13 14 15 13 13 15 14 11 10 11 11 10 8 7 7 7 8 8 8 7 7 7 8 8 8 9 10 10 10 10 10 9 8 8 8 8 7 8 7 6 6 6 5 4 4 4 5 2 2 3 4 5 5
7 4 6 8 3 7 12 2 4 4 2 4 2 11 16 16 14 14 16 14 14 18 18 17 18 18 17 15 14 14 13 15 20 13 7 3 4 7 9 9 10 10 10 12 12 12 9 10 11 14 13 11 11 10 9 7 6 6 5 6 8 8 7 7 7 8 8 8 9 9 10 10 9 10 10 10 9 8 8 7 8 9 8 7 7 6 6 5 5 4 5 4 2 0 2 3 5
9 5 7 3 7 6 5 10 8 5 12 9 8 17 17 11 13 14 14 10 12 19 20 17 17 17 15 14 14 14 13 15 13 7 6 4 5 6 7 8 9 9 10 10 12 11 11 11 11 11 11 10 8 7 7 7 7 8 8 6 7 9 8 9 9 9 8 9 10 10 11 10 10 10 10 10 9 9 9 8 9 8 8 8 8 8 7 7 9 8 6 6 6 4 3 4 6
1 1 2 9 10 10 7 10 10 1 5 12 18 19 17 12 11 14 15 12 12 17 20 21 19 15 14 15 15 16 14 13 6 5 6 5 5 6 7 7 8 8 8 9 11 12 13 14 12 15 12 11 9 10 9 10 11 9 7 10 12 10 11 10 9 9 9 9 9 11 10 10 10 11 10 10 10 8 7 7 8 8 8 8 9 9 8 8 6 5 5 3 6 6 3 3 4
5 7 6 11 3 15 10 10 3 0 2 3 4 17 20 16 12 14 16 15 18 21 21 19 21 19 16 19 19 16 10 3 7 7 7 6 7 7 6 6 5 7 9 9 11 14 14 12 14 13 8 9 10 11 10 10 11 12 13 13 11 10 10 11 12 11 11 9 9 9 9 9 10 11 10 10 9 10 9 8 9 10 9 8 7 6 7 7 7 6 6 5 1 4 4 6 6
7 9 6 7 8 11 12 13 9 5 2 11 7 15 16 15 16 18 19 22 18 14 9 17 19 20 18 17 15 9 8 7 9 3 4 4 7 8 6 5 6 8 5 8 10 8 9 11 12 10 9 11 12 13 10 10 9 10 9 5 8 6 6 5 4 6 6 8 9 9 9 9 10 9 10 10 9 9 9 9 9 9 10 9 9 9 9 9 8 9 10 8 6 1 2 2 6
6 5 3 11 2 4 9 1 2 1 1 11 11 20 19 13 20 21 19 13 13 12 13 17 19 18 23 17 7 9 9 10 8 6 5 8 8 8 6 6 7 5 7 6 7 9 8 9 10 11 11 12 11 13 13 11 10 8 7 2 4 5 4 5 6 5 7 6 9 9 8 9 10 10 10 10 9 10 11 11 10 10 10 10 10 10 10 10 9 8 9 7 7 6 4 5 3
6 9 5 8 9 11 9 6 6 7 5 2 9 13 14 7 5 4 6 4 7 16 11 13 18 22 11 6 12 2 5 5 5 5 7 7 8 7 7 7 4 5 6 7 7 8 7 11 11 12 11 12 10 11 12 9 7 6 5 4 4 4 3 6 7 7 8 9 7 10 10 9 10 10 11 13 11 12 11 10 10 10 11 10 9 9 10 11 11 10 10 8 12 10 8 3 3
6 4 11 17 13 11 9 9 8 6 7 5 5 12 4 2 1 5 6 3 4 3 4 16 22 7 4 6 6 6 4 3 1 4 6 6 7 9 8 6 5 5 7 7 6 7 7 7 8 9 8 8 9 11 12 9 8 8 9 8 8 7 7 7 13 14 9 12 13 6 8 12 11 11 11 12 12 11 11 11 11 11 10 10 10 10 9 8 9 10 12 10 12 7 10 7 5
4 8 13 13 10 8 7 10 4 5 2 2 4 3 17 3 3 3 5 5 10 7 12 18 13 4 4 5 2 4 4 2 3 5 5 6 7 7 8 7 6 6 7 5 5 6 7 7 7 8 9 8 8 9 12 10 9 9 12 12 11 11 10 9 4 2 8 6 4 10 8 8 11 11 10 11 11 11 10 10 11 11 10 10 10 9 10 11 11 11 8 9 9 6 7 9 11
8 2 5 6 6 7 6 2 5 7 1 4 3 4 5 21 2 6 3 2 10 13 14 16 7 4 5 7 2 3 3 3 1 2 4 6 6 4 7 9 7 7 8 7 5 4 6 7 7 8 7 8 8 8 11 12 11 11 12 13 12 11 12 9 8 7 5 7 7 8 8 8 9 9 9 10 10 10 11 10 11 10 11 10 10 10 10 10 8 7 8 8 6 6 9 10 10
5 1 6 3 5 5 2 4 5 2 5 8 1 1 3 10 3 3 2 3 11 13 15 14 3 4 5 9 1 7 3 2 2 1 3 6 6 7 7 9 9 8 7 7 7 5 5 5 6 6 7 7 7 11 11 13 12 12 11 9 11 10 9 6 4 6 7 7 8 7 8 8 8 9 8 9 10 10 10 10 10 10 10 10 10 9 9 10 12 12 11 10 10 8 8 6 8
3 4 7 6 6 5 2 3 2 2 1 9 7 6 4 19 2 3 5 1 7 11 13 12 4 7 7 9 4 7 0 1 3 3 4 6 5 7 7 8 8 7 7 6 6 5 4 4 5 6 7 6 6 9 10 12 13 10 11 12 14 11 7 5 4 7 8 7 8 8 7 7 8 8 9 10 10 10 10 10 10 11 11 10 9 11 10 11 10 11 12 12 10 11 7 7 10
4 4 3 3 6 3 3 5 2 2 5 8 13 12 7 12 4 9 7 7 7 6 4 7 4 5 5 9 5 5 2 1 2 5 5 6 5 5 7 9 9 10 8 8 7 6 4 2 3 5 6 5 6 9 10 12 11 12 12 13 14 13 11 9 8 8 8 9 9 9 8 7 7 8 7 8 10 11 10 11 10 11 11 11 10 11 12 12 11 11 10 11 11 12 9 8 8
3 1 2 3 2 6 3 4 3 1 10 3 12 14 12 12 2 5 6 6 6 4 5 5 5 7 6 3 7 4 3 2 4 6 8 8 10 9 9 10 11 11 10 10 9 6 5 4 3 4 3 5 5 7 8 10 10 12 12 11 13 13 12 11 13 13 12 12 10 10 8 7 8 7 7 8 10 10 11 10 11 10 11 11 12 11 10 10 10 9 9 10 9 10 9 9 8
3 3 1 2 5 6 2 2 1 5 10 1 1 2 3 18 6 3 9 7 8 8 7 6 4 7 9 5 8 3 5 3 4 3 4 9 11 12 10 11 10 11 10 10 9 7 6 6 5 6 7 3 5 6 8 9 9 11 11 11 11 10 11 12 12 12 9 9 8 9 9 9 8 8 10 11 11 12 10 9 10 11 11 11 10 10 10 11 10 10 10 11 10 12 11 11 9
6 6 4 4 2 3 4 4 2 6 6 4 3 2 10 4 4 10 15 19 8 4 8 9 8 9 7 7 5 6 6 5 8 8 9 10 12 13 12 11 12 12 13 12 11 11 9 8 7 6 8 4 5 5 7 8 10 9 9 10 10 9 10 10 9 10 10 7 7 9 8 9 10 11 10 13 10 11 10 12 12 10 9 8 9 11 10 10 10 10 10 11 12 10 8 12 10
11 2 9 8 7 4 5 4 8 7 4 2 3 1 8 1 4 3 9 3 5 2 3 4 6 7 8 3 4 3 9 13 12 12 12 12 14 15 11 10 11 13 16 15 13 13 11 10 9 9 9 7 5 6 6 7 8 8 7 8 8 8 9 9 9 8 8 8 7 9 8 7 9 8 9 8 8 11 12 9 11 10 11 12 12 11 12 10 10 9 10 11 9 9 10 9 10
2 3 3 2 8 5 9 5 4 10 2 4 1 7 4 5 3 5 3 4 7 6 5 4 7 4 5 10 10 13 13 14 14 14 15 17 14 11 10 13 14 14 17 17 18 15 13 10 9 9 9 8 5 6 6 6 7 6 7 8 9 9 8 7 7 7 8 7 8 9 9 8 8 7 7 8 10 11 11 11 11 13 14 13 14 15 12 9 10 10 9 10 11 7 10 12 10
3 5 6 8 1 3 4 3 2 2 1 13 3 8 11 5 11 12 12 1 3 3 4 5 7 8 9 11 12 12 14 14 14 14 13 13 12 13 13 14 13 13 14 15 15 14 14 12 10 8 8 7 6 5 5 5 5 6 8 8 8 8 9 10 10 9 9 7 8 8 9 10 9 7 7 8 9 9 11 13 10 10 11 11 12 13 13 11 10 10 10 11 11 10 9 12 9
7 2 7 1 1 2 2 5 1 4 9 10 7 14 12 7 12 4 6 3 4 5 4 3 8 11 13 10 12 14 13 13 12 12 11 12 13 13 13 12 12 12 11 11 13 12 12 13 14 14 14 13 11 9 6 5 5 6 7 7 8 9 9 9 9 9 7 7 7 8 8 8 10 10 10 9 11 12 12 13 12 12 13 10 11 9 10 10 9 9 10 10 9 9 10 8 10
5 5 1 2 4 2 2 5 4 5 9 6 6 14 14 10 14 5 8 7 7 7 7 13 15 14 13 13 13 12 12 11 12 11 11 11 11 10 10 10 9 10 11 11 10 9 8 8 10 10 13 13 13 11 9 8 6 5 5 7 7 8 8 8 8 8 7 7 9 9 10 10 8 9 10 11 11 12 12 11 11 11 10 11 10 9 10 8 9 8 9 9 8 9 10 10 9
1 1 1 0 1 3 2 5 1 1 8 5 6 7 11 6 4 3 1 4 6 6 11 12 13 12 10 10 11 11 12 11 10 10 9 9 8 8 9 8 9 8 6 3 2 5 12 12 15 16 16 18 19 17 13 11 9 7 7 6 7 7 8 8 9 8 8 9 9 9 9 9 11 9 10 11 12 13 14 11 10 11 10 11 11 11 10 10 9 9 8 8 8 10 10 11 9
1 0 4 0 1 2 2 2 3 7 9 9 8 11 8 10 2 4 5 8 12 8 10 11 10 11 10 10 9 8 8 8 7 6 7 7 8 8 7 7 6 6 8 12 15 17 17 19 21 20 19 17 17 16 16 14 11 9 8 9 8 7 8 8 8 8 9 10 9 9 9 10 8 10 9 11 12 13 13 14 12 14 13 12 12 12 11 10 11 11 10 10 9 10 11 9 8
6 8 7 9 6 5 9 13 4 5 7 7 7 14 5 7 8 10 15 10 12 12 11 10 10 10 10 10 10 9 8 8 8 7 7 6 6 7 8 9 11 15 17 19 17 18 20 19 16 15 16 16 15 15 13 13 13 11 10 8 8 7 7 6 7 8 9 10 9 10 10 8 11 10 10 12 12 11 11 12 14 14 12 11 10 11 10 10 12 11 12 12 12 11 11 11 9
Wind_Direction
336 352 338 43 49 85 44 6 251 317 40 265 320 184 274 349 268 326 262 337 305 235 200 30 163 151 194 205 210 193 215 143 205 131 227 239 259 255 223 218 303 182 155 166 176 180 184 186 193 188 184 185 185 182 185 184 181 180 180 177 174 177 178 174 174 170 163 156 150 145 144 139 135 130 120 110 104 102 96 87 88 94 98 99 104 95 88 84 80 75 78 81 79 75 71 72 71
309 333 50 27 19 39 209 119 101 350 36 9 246 103 255 286 353 221 258 215 217 287 304 230 226 329 326 72 210 313 255 216 174 206 280 255 290 251 214 219 234 184 163 166 171 173 178 185 189 183 183 184 184 182 179 182 176 177 175 175 176 175 177 175 170 164 160 154 150 144 140 138 131 124 115 122 115 117 103 94 95 97 104 106 98 88 84 80 78 76 75 77 76 74 71 68 66
356 18 67 34 25 73 100 35 283 7 24 294 271 211 351 282 212 254 233 235 240 282 297 318 240 287 263 269 330 157 269 222 296 261 238 347 291 220 194 206 219 209 167 165 169 174 171 173 177 178 181 180 179 178 173 174 172 172 172 169 177 172 173 172 167 161 155 149 144 140 139 132 134 132 126 115 118 124 130 101 99 103 93 86 90 88 93 80 79 80 81 79 79 76 73 69 66
86 31 132 73 245 30 58 27 89 130 209 221 318 258 197 198 242 231 245 261 271 318 305 221 159 222 180 249 227 66 273 296 196 163 247 206 210 308 172 196 207 196 175 173 174 174 170 176 173 174 177 175 173 171 169 170 170 170 169 170 173 172 169 171 164 159 154 149 144 140 134 139 142 139 129 126 134 142 149 129 117 95 111 101 97 94 107 92 88 86 84 81 79 77 76 73 69
79 7 71 103 113 355 105 103 134 98 234 176 216 265 236 219 253 276 272 265 283 180 177 155 289 257 183 234 291 236 249 244 276 206 256 255 251 201 166 186 186 180 178 179 177 176 180 178 170 168 170 169 169 166 166 165 165 167 165 168 167 166 170 167 165 160 156 154 150 149 150 142 139 147 141 139 152 161 145 137 145 130 133 130 122 120 97 90 89 87 83 82 81 78 75 72 70
59 45 359 80 334 148 68 107 147 201 223 146 241 269 223 220 236 251 285 297 263 182 171 86 232 7 318 219 197 225 190 319 122 223 179 260 243 171 164 175 176 181 178 177 181 179 187 184 171 167 167 166 166 163 164 165 163 164 165 171 166 164 170 170 166 168 160 156 154 155 160 162 177 165 149 165 167 166 151 115 96 105 125 138 132 121 96 95 95 91 89 86 85 80 77 74 70
271 45 358 26 39 56 183 176 227 220 262 169 243 267 280 276 235 331 313 347 112 178 211 248 52 291 300 306 298 236 191 64 131 248 175 341 315 164 160 168 174 180 177 177 167 181 193 187 175 173 168 165 167 162 163 170 167 167 170 174 169 172 178 173 180 180 181 177 168 188 168 188 190 174 150 166 167 168 159 149 136 137 138 130 117 109 103 102 99 95 91 89 85 83 81 78 74
77 134 312 116 235 22 51 229 257 157 274 177 237 263 283 260 193 277 281 40 294 197 162 271 243 117 255 84 262 282 325 218 203 298 291 300 151 169 165 166 174 181 179 174 177 179 192 193 184 178 172 172 172 168 171 177 177 176 179 187 183 183 187 194 195 199 204 188 187 187 187 186 176 184 178 161 173 169 161 156 148 145 130 113 108 107 107 106 104 101 97 94 89 87 84 81 79
5 85 291 75 122 43 56 265 271 218 283 278 260 226 270 272 248 264 274 235 323 221 258 229 213 98 245 358 220 268 286 283 291 270 269 199 172 171 168 176 178 175 181 173 181 180 188 199 194 182 186 179 180 181 184 188 187 189 186 194 196 199 199 200 205 199 200 227 203 188 153 151 164 163 167 165 162 168 162 159 158 143 124 120 118 115 113 110 107 105 103 99 97 94 90 85 82
44 55 264 125 115 265 4 287 292 235 224 235 264 275 262 243 260 189 262 300 229 29 251 303 175 221 347 283 297 290 247 330 303 270 222 206 175 168 176 182 183 175 177 179 182 185 188 201 197 186 200 194 187 188 189 190 191 193 192 193 204 200 195 203 211 199 209 216 198 182 169 160 167 171 175 167 162 162 160 157 149 136 130 129 125 120 117 113 112 110 106 103 101 97 93 89 85
17 17 148 92 30 322 257 272 254 304 262 304 283 252 254 256 215 251 194 235 252 193 333 161 123 239 49 262 230 230 288 331 139 227 197 196 172 176 175 179 170 172 177 182 183 187 193 200 201 190 194 203 196 199 196 196 196 200 198 190 203 202 197 205 207 203 205 199 197 195 173 173 172 174 172 168 166 161 159 154 147 141 138 132 129 125 121 117 116 114 108 104 101 98 94 91 88
30 25 7 99 193 185 237 221 275 276 282 314 275 265 144 160 133 179 245 270 301 250 211 160 232 134 186 321 280 277 306 281 211 240 199 177 176 179 166 159 160 170 174 176 181 197 203 206 202 199 195 202 201 188 185 198 199 205 212 203 207 209 198 203 201 199 198 196 193 189 175 169 173 174 174 170 168 162 158 153 149 145 140 136 131 129 125 122 117 113 110 106 102 99 96 93 89
115 110 81 106 212 145 203 292 251 297 317 272 217 218 98 133 180 207 214 244 213 350 278 211 72 151 282 200 258 316 297 9 303 248 160 176 173 165 136 156 162 164 169 171 179 198 212 215 205 201 202 203 202 192 191 194 198 207 191 198 202 205 185 198 195 188 194 194 190 184 174 173 176 176 174 170 165 163 159 154 151 146 142 137 134 131 126 122 118 114 111 107 103 99 97 94 90
117 183 130 221 49 119 166 254 315 331 293 248 262 285 231 181 231 189 125 261 239 181 239 191 173 148 254 349 302 323 256 321 332 139 115 127 136 138 152 151 162 171 177 178 191 191 204 211 210 206 201 202 194 196 191 187 193 194 191 198 199 194 188 190 190 185 194 190 183 174 171 172 173 176 173 168 165 163 158 155 152 147 142 139 134 131 127 123 120 115 111 108 104 101 97 94 90
118 174 83 115 105 49 236 196 196 128 271 221 264 124 17 250 144 113 181 241 273 210 314 212 194 119 246 153 284 245 232 340 82 110 108 100 121 128 144 149 167 185 188 195 203 193 201 200 205 208 203 197 189 189 185 184 185 186 186 199 200 186 179 185 184 182 186 179 172 165 163 159 169 169 168 166 165 157 154 154 153 148 144 139 136 132 128 126 123 118 112 108 105 101 97 94 89
136 92 76 130 260 158 266 201 31 115 260 198 274 163 329 285 183 147 253 189 263 285 138 229 159 206 221 176 238 218 203 152 154 113 110 112 103 101 143 167 181 209 213 209 210 213 198 197 197 203 199 195 189 181 181 178 187 182 188 194 188 179 175 173 172 173 169 165 160 153 149 153 160 162 161 162 158 155 154 156 153 151 145 141 139 134 132 128 124 120 115 110 105 100 95 92 91
83 78 54 48 272 156 248 176 159 226 249 274 279 252 125 280 259 244 134 128 272 264 242 223 197 255 211 212 211 253 268 149 126 113 107 124 142 165 186 209 214 221 222 219 215 207 205 199 198 197 197 195 188 179 175 180 187 178 185 186 177 169 166 163 165 160 156 154 147 143 138 136 134 143 148 143 147 146 152 158 154 151 145 142 138 136 132 128 125 121 117 111 104 96 88 84 82
55 122 117 242 208 158 205 187 192 213 221 275 309 174 9 298 323 267 54 306 236 285 265 269 285 253 227 235 153 314 137 145 149 141 154 148 170 182 204 211 202 213 207 213 217 212 204 207 201 193 190 197 186 180 174 173 181 180 181 176 173 168 162 158 157 145 146 137 142 139 135 134 133 135 135 136 137 150 156 154 147 147 144 141 139 136 133 129 125 121 115 109 102 95 86 77 68
106 117 122 233 191 237 166 202 203 137 251 230 264 220 203 259 142 284 320 281 321 307 269 198 256 267 269 259 218 142 149 160 167 183 171 178 186 193 202 199 210 215 217 214 212 206 207 200 202 201 198 179 186 184 175 163 180 173 176 170 167 162 157 152 137 143 137 142 135 134 140 136 137 138 138 139 139 145 144 141 138 142 141 138 135 133 130 124 120 114 106 102 96 91 86 82 83
221 125 222 243 215 229 230 199 219 207 250 282 295 295 168 249 140 349 227 278 327 262 273 284 230 253 252 245 213 202 173 184 195 188 197 202 201 200 195 198 208 214 217 206 201 200 204 205 202 198 196 184 178 185 162 166 181 163 162 169 165 158 149 138 140 145 147 145 143 144 142 140 137 140 137 140 138 139 134 129 128 128 121 113 119 123 119 114 109 102 97 95 91 83 88 87 88
262 117 202 228 211 193 246 211 235 235 178 253 250 305 314 257 216 155 193 335 265 260 248 239 262 255 260 232 228 191 200 198 207 215 217 218 219 223 213 203 199 204 208 198 200 207 204 205 199 201 195 189 189 184 178 194 180 164 170 172 169 161 146 149 154 151 153 149 148 148 145 142 143 148 150 144 139 128 119 111 102 102 102 98 86 92 88 80 83 94 91 86 85 93 87 81 81
115 212 218 203 116 229 244 223 218 205 204 217 295 321 265 62 78 206 162 227 257 253 261 214 240 250 251 260 231 185 198 210 211 215 222 214 209 214 217 233 245 246 168 197 210 202 202 202 202 196 194 193 193 187 192 183 167 193 187 176 165 164 157 158 159 161 157 159 156 150 147 145 151 149 151 150 144 142 135 130 121 120 126 120 115 117 117 114 113 105 101 95 87 84 79 74 63
237 279 254 230 207 239 240 211 216 165 184 178 282 239 330 227 274 179 184 205 250 251 257 259 244 246 243 253 155 197 208 215 213 219 216 222 224 225 221 218 210 204 196 212 205 206 198 199 201 195 196 192 197 189 181 179 193 197 185 170 175 175 167 165 174 170 166 159 159 158 156 160 156 159 158 159 155 158 146 144 142 141 140 140 148 137 122 117 112 108 100 96 96 92 87 80 77
208 259 211 274 195 229 215 239 130 190 193 242 205 329 289 271 289 175 196 225 242 259 254 255 263 257 242 244 213 221 211 212 220 222 215 217 215 218 211 209 213 216 207 213 201 197 193 194 196 194 196 193 192 190 187 189 186 186 185 173 187 166 169 179 174 177 158 168 168 169 164 162 161 165 169 166 162 161 156 146 143 144 142 145 151 145 125 117 109 103 107 105 104 96 100 93 92
207 265 210 265 167 241 256 248 253 261 252 259 310 284 265 263 256 352 238 227 244 256 260 260 269 270 260 249 255 238 233 233 238 236 234 238 233 241 238 234 223 206 226 208 203 198 193 184 189 196 195 195 190 186 192 189 187 187 183 188 190 173 182 180 174 164 173 170 173 171 169 165 170 170 170 169 155 163 150 156 160 155 149 150 155 140 130 128 121 125 123 119 114 114 110 104 100
204 231 207 277 268 274 261 293 237 232 267 166 189 256 266 281 278 256 255 236 241 252 276 268 272 270 257 249 250 248 240 235 239 243 226 231 236 236 238 219 207 213 219 206 197 205 182 181 190 194 194 192 189 186 195 189 190 189 191 194 188 179 187 176 166 177 175 170 176 182 180 175 173 171 167 162 165 160 159 156 162 161 158 160 158 142 146 133 137 134 124 122 124 123 116 115 116
170 221 247 260 273 307 282 228 261 229 240 151 195 254 267 295 47 283 190 234 232 265 265 276 243 251 253 247 252 248 242 242 233 238 255 230 225 220 237 219 213 226 213 214 206 200 189 182 195 192 193 192 186 194 194 195 186 194 191 192 182 189 176 168 178 176 175 182 179 175 180 182 170 169 166 164 167 157 161 164 168 158 160 167 157 136 137 141 137 137 143 140 140 134 124 130 130
67 198 310 285 290 265 238 262 260 106 279 184 201 250 276 294 140 248 262 140 175 219 269 273 248 253 259 253 251 253 241 247 245 217 236 230 221 210 225 210 219 224 205 219 210 185 182 197 190 188 192 190 193 196 194 194 194 195 191 189 193 183 167 179 177 179 181 183 177 179 181 179 172 169 168 166 166 161 165 168 164 169 168 158 154 142 141 142 136 123 112 107 112 120 126 132 136
115 27 306 290 337 315 256 209 249 161 244 158 169 227 299 264 223 249 255 155 235 249 265 271 263 254 261 267 257 251 242 248 231 225 233 231 229 213 223 217 220 217 219 221 202 188 201 191 188 193 188 190 195 195 194 196 192 194 193 196 185 183 178 176 183 184 182 180 177 180 181 177 178 172 172 169 166 166 163 164 168 175 166 157 146 142 134 135 131 129 120 122 120 126 130 124 122
28 47 158 319 328 296 289 175 31 149 244 150 147 275 220 248 246 257 281 200 149 232 257 261 267 264 258 263 261 260 253 247 236 232 234 232 230 222 226 223 216 218 216 207 190 207 202 197 198 187 192 196 200 193 194 196 195 195 196 186 180 175 184 184 188 183 177 177 179 180 181 182 177 174 165 167 166 165 168 173 168 167 165 156 143 145 149 153 143 138 140 141 149 159 152 144 143
235 248 99 247 340 266 290 91 139 193 202 172 131 248 248 264 269 268 270 202 198 251 258 263 265 268 262 261 265 265 269 233 239 241 240 237 237 233 235 233 214 217 213 196 203 213 190 200 192 194 195 198 197 198 200 201 194 191 187 184 186 185 185 191 185 178 181 181 178 183 184 180 176 171 173 166 169 168 169 170 175 169 156 154 149 156 149 151 146 151 155 153 147 154 139 140 150
323 348 265 317 201 282 301 283 179 238 335 185 126 259 253 252 265 273 310 60 132 244 266 268 269 272 270 265 264 266 266 273 254 251 249 240 229 237 229 233 214 212 211 210 212 198 198 196 194 204 193 199 199 201 198 197 194 191 189 190 187 186 189 193 184 185 184 179 184 181 181 179 174 175 174 173 166 173 173 173 173 157 160 151 149 149 154 160 157 152 171 163 151 159 150 128 137
341 205 262 252 217 263 339 290 194 219 145 278 184 248 297 280 255 270 292 246 199 250 269 274 277 274 272 267 264 263 274 278 278 257 249 230 237 232 234 231 216 217 216 213 208 202 207 198 197 200 197 200 202 197 195 197 190 190 190 187 186 184 195 191 189 183 186 187 183 181 180 181 180 179 176 173 167 171 176 173 162 160 156 154 151 155 164 159 156 159 172 199 248 154 155 131 122
265 163 234 200 244 293 271 306 295 123 171 208 244 249 239 260 278 298 305 298 287 274 272 277 276 275 273 272 265 264 265 269 272 271 293 194 231 224 228 225 221 217 216 212 209 203 205 198 200 203 207 201 200 198 197 193 190 183 185 185 185 191 196 192 190 184 192 186 181 188 177 185 183 176 173 175 177 175 172 165 155 159 157 151 149 159 165 154 160 174 167 186 184 169 154 146 128
232 224 257 277 263 236 253 323 261 20 163 222 313 251 259 265 282 281 276 285 291 280 273 270 277 275 275 274 273 268 261 261 262 276 301 269 241 231 230 228 227 218 216 211 209 211 205 199 200 205 202 196 198 194 194 188 175 178 156 169 190 197 194 197 190 193 193 184 191 182 179 186 179 177 176 175 176 171 167 165 162 161 158 154 151 158 161 168 170 182 183 151 126 349 143 132 128
245 239 252 267 276 242 224 235 273 272 288 293 249 262 269 270 271 275 275 265 268 278 284 281 271 270 273 273 273 270 262 262 268 292 308 321 266 246 234 229 225 220 216 206 208 204 204 201 203 205 202 193 186 177 172 180 175 181 177 169 199 204 194 197 196 200 184 195 189 184 184 186 176 177 178 177 175 171 169 168 162 159 161 157 159 165 175 180 176 175 184 157 139 104 66 117 134
72 158 241 257 264 278 264 272 265 129 302 248 265 273 275 268 261 272 276 276 265 270 273 274 275 281 278 275 269 268 267 264 301 360 356 325 302 276 254 234 227 222 219 207 204 205 203 203 192 206 197 189 178 177 182 179 182 178 193 201 206 188 196 189 195 195 195 197 185 191 184 185 177 176 179 175 180 169 168 156 156 164 165 168 170 182 172 167 171 173 146 159 153 144 136 160 172
277 272 264 270 236 275 259 281 289 87 216 281 244 278 275 276 271 268 272 267 262 253 265 277 281 277 276 270 271 270 282 307 32 24 3 354 330 291 269 252 226 223 226 211 209 209 207 202 203 206 179 190 194 192 190 192 194 191 186 195 191 188 184 189 199 191 198 191 192 191 191 182 178 182 177 177 173 171 164 165 169 170 168 174 172 151 157 165 163 165 162 151 274 169 147 183 183
250 242 267 298 264 265 271 257 281 281 154 274 273 272 274 276 266 256 248 251 255 264 253 264 270 274 274 271 268 304 312 325 66 39 8 328 290 281 280 267 257 239 249 216 225 217 210 207 212 195 192 193 199 196 191 202 198 205 204 206 196 198 214 225 216 192 175 191 190 190 186 187 181 180 177 178 174 172 171 167 173 166 175 163 161 170 169 174 176 175 183 174 152 105 102 179 201
230 254 271 250 267 301 301 240 5 315 265 297 300 296 290 263 252 249 251 252 259 259 249 250 253 261 257 264 330 302 323 343 355 14 318 279 284 296 304 281 257 260 252 252 230 220 216 215 209 201 200 200 198 199 203 205 200 201 207 76 175 191 190 168 194 178 191 174 197 187 190 182 182 183 173 174 177 179 174 177 172 175 175 177 173 166 175 179 174 182 189 199 168 144 182 185 224
199 214 244 280 257 244 234 274 340 310 276 216 311 282 286 248 279 286 283 273 243 258 261 265 264 251 271 328 274 308 306 358 355 334 288 295 312 308 296 290 293 259 254 246 230 220 213 215 210 204 202 201 200 197 198 187 165 150 142 69 91 116 89 162 180 210 189 192 190 191 190 178 185 180 178 184 181 180 179 178 175 175 174 176 174 176 179 185 183 182 181 179 192 174 163 164 193
257 208 199 237 253 273 267 284 354 4 314 353 26 327 298 353 158 248 269 354 263 268 253 251 248 291 18 280 302 61 62 104 113 257 267 291 292 303 315 316 313 267 265 254 238 233 223 224 209 207 206 196 198 196 189 176 182 175 163 169 180 184 199 185 199 198 168 190 198 151 176 194 182 189 184 183 186 179 180 178 175 173 176 175 181 183 177 170 183 186 195 192 192 218 162 150 160
304 264 207 230 240 248 266 285 15 291 200 313 46 74 291 145 204 255 261 252 270 280 239 252 262 35 341 294 20 58 76 22 292 279 295 295 299 316 326 339 333 308 282 282 261 239 228 223 204 201 203 201 194 189 181 182 186 190 192 198 198 197 204 216 215 174 197 202 176 191 195 183 194 188 187 186 185 184 178 178 179 180 177 177 175 172 180 188 185 194 180 196 202 167 153 168 175
257 241 176 196 214 228 246 228 195 249 265 298 173 171 241 299 191 228 270 231 259 261 263 261 291 350 288 281 84 99 122 183 224 269 280 283 274 270 307 318 323 313 305 314 291 265 231 222 203 200 198 193 186 181 185 190 193 194 199 207 208 211 213 207 178 198 182 184 192 191 186 192 191 196 187 189 189 185 183 182 182 178 178 181 175 184 183 184 183 186 193 200 187 195 192 183 169
220 251 141 152 200 208 163 185 215 229 9 308 281 90 302 255 265 341 145 135 254 257 262 270 321 291 288 277 99 120 115 191 196 26 293 281 335 337 316 319 324 322 326 318 316 290 254 231 211 195 198 191 183 183 186 194 199 198 199 203 213 223 224 222 149 167 176 176 190 187 191 185 186 195 192 188 192 190 190 186 180 181 179 180 182 185 188 180 186 179 178 188 198 197 206 201 156
253 121 83 82 78 66 129 124 130 314 31 267 183 177 225 281 258 129 355 319 277 254 251 265 282 288 288 286 84 84 93 239 241 213 278 329 333 315 313 296 318 329 320 319 310 308 277 231 206 195 205 189 182 189 193 198 200 196 204 210 215 217 205 193 166 179 182 171 194 196 191 185 190 188 193 191 189 192 190 185 186 187 187 182 184 189 184 180 183 189 193 193 190 196 196 200 192
128 108 78 14 42 50 31 69 94 40 260 256 176 196 162 276 310 174 138 202 218 278 322 294 318 301 301 292 5 85 270 292 103 7 331 306 291 308 333 336 331 337 338 339 332 337 329 312 239 215 217 191 183 192 194 202 201 204 211 210 212 213 203 187 182 187 173 175 192 190 188 190 185 199 191 194 196 192 193 190 187 189 188 188 190 188 191 184 184 187 187 191 197 196 192 193 202
137 94 135 35 342 11 29 341 39 191 272 238 192 184 179 221 308 298 234 270 241 215 256 277 331 332 322 288 65 26 282 304 15 360 345 344 357 3 7 353 346 339 344 349 340 336 356 357 349 283 281 222 201 199 202 208 203 212 220 217 217 217 206 201 202 199 186 189 191 190 181 176 188 188 189 196 203 197 197 194 192 191 192 188 194 192 185 184 183 181 184 191 193 199 192 193 196
88 78 19 259 276 28 321 31 302 195 235 311 306 142 341 246 236 267 272 273 265 215 229 242 298 316 308 324 37 0 291 337 55 3 346 5 6 358 358 352 347 350 351 347 339 335 5 14 357 320 291 278 230 204 211 215 213 218 217 219 224 220 221 217 217 215 198 198 192 190 178 189 175 187 197 199 200 196 195 189 190 196 196 198 195 184 190 185 182 185 184 187 192 193 194 187 191
133 165 160 104 289 251 261 266 255 306 301 281 173 139 252 302 282 215 247 254 254 225 225 244 266 270 283 307 23 352 315 8 18 6 10 18 14 5 7 3 356 355 0 4 360 3 3 6 352 321 301 309 261 234 221 218 227 229 226 227 226 220 226 224 226 225 215 212 200 200 191 189 191 200 191 206 192 194 195 203 200 201 200 195 192 195 192 190 184 185 184 189 196 198 186 198 202
195 106 155 190 169 164 262 203 254 259 242 303 275 120 235 91 249 237 237 313 335 305 301 279 265 262 262 326 25 335 12 17 10 14 18 24 21 20 15 5 6 6 6 9 12 10 9 4 348 331 314 310 271 250 234 232 235 234 239 238 235 231 230 227 230 228 225 215 208 207 203 198 204 198 201 197 191 200 207 205 204 200 200 198 196 195 197 189 189 186 191 195 194 190 194 189 202
185 161 74 69 240 144 237 227 224 276 332 333 220 214 214 205 272 291 208 270 332 327 307 316 301 295 6 35 33 26 23 24 26 24 25 27 23 16 16 18 16 9 7 10 12 10 13 3 345 335 316 305 277 255 245 239 243 238 233 232 238 239 239 240 241 230 228 216 214 212 211 207 212 202 203 194 202 197 199 203 205 208 203 203 201 201 196 189 188 190 189 190 197 183 191 191 198
203 104 193 215 127 160 277 334 237 86 12 259 214 287 268 302 264 253 267 254 355 344 320 351 311 331 35 39 29 29 29 32 29 31 28 22 14 17 20 18 14 12 11 10 6 6 7 13 11 348 316 299 299 270 261 249 249 242 243 239 234 230 234 237 237 235 227 216 209 210 213 214 209 206 203 202 199 196 199 202 203 206 206 206 205 204 201 198 192 197 194 191 198 184 189 195 188
109 180 238 46 158 111 155 230 350 213 233 259 261 265 278 314 296 33 64 98 358 25 355 307 355 12 47 35 35 29 27 28 29 28 26 23 21 20 17 16 15 12 11 10 9 7 8 11 13 8 1 359 356 351 329 290 260 247 248 246 242 238 236 235 238 243 230 218 215 211 212 211 209 204 197 195 196 197 200 200 203 204 207 206 209 205 206 203 195 205 202 202 199 174 192 190 197
163 186 293 139 236 235 251 84 240 241 240 263 205 269 273 250 258 289 327 333 337 336 345 32 30 27 26 26 26 26 22 25 24 21 20 20 20 17 17 18 15 15 10 10 3 1 4 17 20 20 13 9 5 359 345 317 288 263 253 246 243 245 242 244 240 235 228 225 222 216 213 216 208 201 201 198 194 193 194 199 202 202 195 201 202 203 203 203 203 209 206 207 193 189 192 195 188
87 39 344 164 85 237 122 196 215 17 270 271 242 235 266 246 255 95 77 325 320 7 50 56 44 42 37 25 20 14 16 17 16 16 15 15 18 19 18 20 21 23 18 349 341 10 26 23 24 21 15 9 6 6 358 345 323 301 283 271 260 246 244 240 238 235 232 227 225 222 220 216 215 205 209 200 200 200 198 192 195 200 199 196 192 195 192 198 197 210 205 206 195 188 196 196 185
213 177 249 303 208 216 114 323 185 228 258 234 266 245 244 263 341 28 5 31 41 61 78 62 46 31 34 34 22 18 18 16 13 11 10 11 12 14 21 25 25 23 24 22 21 19 15 17 17 13 11 8 8 360 356 350 341 321 300 286 273 259 251 244 244 236 238 237 231 221 220 221 212 216 202 204 207 205 202 202 197 202 201 200 194 187 186 189 197 203 205 208 200 194 197 198 177
178 181 210 210 220 277 262 259 173 226 222 251 245 258 247 290 314 22 62 53 53 37 53 62 50 37 27 18 18 15 13 13 10 10 8 10 13 19 24 24 22 22 20 19 16 18 19 18 13 6 5 6 360 358 357 347 342 335 323 297 279 269 258 254 247 245 243 243 237 230 225 217 218 218 203 211 209 206 205 203 205 207 206 204 201 201 191 187 196 199 206 208 208 196 199 199 186